Location: Ladrillo (historical)
(32.8195°N, 117.2231°W)
Time: 22:43:56
(UTC+00:00)

Altair - Pass Details

Date: 26 February 2021
Orbit: 1501 x 1683 km, 47.2° (Epoch: 15 April)

Event Time Altitude Azimuth Distance (km) Brightness Sun altitude
Exits shadow 11:44:58 40° 192° (SSW) 2,290 8.1 -33.2°
Drops below altitude 10° 11:51:53 10° 158° (SSE) 3,932 9.7 -31.8°
Sets 11:55:13 0° 153° (SSE) 4,921 10.3 -31.1°
